Volver al catálogo

FENGYUN 1C DEB

ActivoSSO
NORAD 30860·DEBRIS·🇨🇳 China

Lanzado May 10, 1999 desde Taiyuan Satellite Launch Center

Loading…

Próximos Pases (próximas 24 horas)

TLE

ActualizadoSource: Space-Track

Época: Sep 14, 2026, 16:34 UTC

1 30860U 99025AWW 26257.69046087  .00001752  00000-0  73153-3 0  9991
2 30860  98.8915 340.5105 0039368 111.7069 248.8309 14.27081655  4503

Sigue FENGYUN 1C DEB en tiempo real con AllMySat

Download on the App Store